Date String (YYYY-MM-DD hh:mm:ss) UTC,Instrument flags,Ambient pressure (hPa),Sample flow (lpm),Bypass flow (lpm),Sample temperature (°C),Ambient temperature (°C),ASC tube jacket temperature (°C),LED temperature (°C),Box temperature (°C),Sample RH (%),Span deviation,Mass concentration (μg/m³),Mass concentration (μg/m³),Mass concentration (μg/m³)
DateTimeUTC,F1_M11,P_M11,Q1_M11,Q2_M11,T1_M11,T2_M11,T3_M11,T4_M11,T5_M11,U1_M11,ZSPAN_M11,X0_M11,X2_M11,X1_M11
2023-01-26 08:00:00,,0829.5,5.01,0.00,22.3,21.7,00.0,31.0,24.1,04.9,0000.0,0001.18,0000.72,0000.60
2023-01-26 08:01:00,,0829.5,5.01,0.00,22.2,21.3,00.0,31.0,24.0,04.9,0000.0,0001.15,0000.71,0000.59
2023-01-26 08:02:00,,0829.5,5.00,0.00,22.2,21.0,00.0,31.0,23.9,04.9,0000.0,0001.20,0000.70,0000.58
2023-01-26 08:03:00,,0829.5,4.99,0.00,22.1,20.8,00.0,31.0,23.8,04.9,0000.0,0001.19,0000.69,0000.58
2023-01-26 08:04:00,,0829.6,5.01,0.00,22.1,20.6,00.0,31.0,23.7,04.9,0000.0,0001.20,0000.70,0000.59
2023-01-26 08:05:00,,0829.5,5.01,0.00,22.1,20.6,00.0,31.0,23.6,05.0,0000.0,0001.19,0000.70,0000.58
2023-01-26 08:06:00,,0829.5,4.99,0.00,22.0,20.4,00.0,30.9,23.6,05.0,0000.0,0001.18,0000.69,0000.57
2023-01-26 08:07:00,,0829.6,5.00,0.00,22.0,20.5,00.0,30.9,23.5,05.0,0000.0,0001.07,0000.67,0000.58
2023-01-26 08:08:00,,0829.5,5.01,0.00,22.0,21.3,00.0,30.9,23.7,05.0,0000.0,0001.07,0000.68,0000.58
2023-01-26 08:09:00,,0829.6,5.01,0.00,22.1,22.2,00.0,30.9,24.0,05.0,0000.0,0000.98,0000.65,0000.57
2023-01-26 08:10:00,,0829.6,5.00,0.00,22.2,22.6,00.0,30.9,24.2,04.9,0000.0,0000.89,0000.61,0000.56
2023-01-26 08:11:00,,0829.5,4.99,0.00,22.3,22.1,00.0,30.9,24.1,04.9,0000.0,0000.91,0000.63,0000.56
2023-01-26 08:12:00,,0829.5,5.01,0.00,22.2,21.6,00.0,31.0,24.0,04.9,0000.0,0000.97,0000.65,0000.56
2023-01-26 08:13:00,,0829.6,5.00,0.00,22.2,21.3,00.0,31.0,23.9,04.9,0000.0,0000.90,0000.64,0000.57
2023-01-26 08:14:00,,0829.5,4.99,0.00,22.1,21.0,00.0,31.0,23.8,05.0,0000.0,0000.87,0000.64,0000.57
2023-01-26 08:15:00,,0829.6,5.01,0.00,22.1,20.8,00.0,31.0,23.7,05.0,0000.0,0000.90,0000.64,0000.57
2023-01-26 08:16:00,,0829.6,4.99,0.00,22.1,20.6,00.0,30.9,23.6,05.0,0000.0,0001.01,0000.66,0000.57
2023-01-26 08:17:00,,0829.5,4.99,0.00,22.0,20.5,00.0,30.9,23.6,05.0,0000.0,0001.04,0000.68,0000.58
2023-01-26 08:18:00,,0829.6,5.00,0.00,22.0,20.4,00.0,30.9,23.5,05.1,0000.0,0001.05,0000.68,0000.58
2023-01-26 08:19:00,,0829.5,5.01,0.00,22.0,21.0,00.0,30.8,23.7,05.0,0000.0,0001.04,0000.67,0000.58
2023-01-26 08:20:00,,0829.6,5.02,0.00,22.1,22.0,00.0,30.8,23.9,05.0,0000.0,0001.09,0000.70,0000.60
2023-01-26 08:21:00,,0829.6,5.00,0.00,22.2,22.7,00.0,30.9,24.1,05.0,0000.0,0001.16,0000.72,0000.61
2023-01-26 08:22:00,,0829.5,4.98,0.00,22.2,22.2,00.0,30.9,24.1,05.0,0000.0,0001.16,0000.72,0000.62
2023-01-26 08:23:00,,0829.6,5.00,0.00,22.2,21.7,00.0,30.9,24.0,04.9,0000.0,0001.16,0000.72,0000.62
2023-01-26 08:24:00,,0829.6,5.00,0.00,22.2,21.3,00.0,30.9,23.9,04.9,0000.0,0001.13,0000.71,0000.61
2023-01-26 08:25:00,,0829.6,4.99,0.00,22.1,20.9,00.0,30.9,23.8,05.0,0000.0,0001.13,0000.71,0000.61
2023-01-26 08:26:00,,0829.6,5.02,0.00,22.1,20.7,00.0,30.9,23.7,05.0,0000.0,0001.11,0000.72,0000.63
2023-01-26 08:27:00,,0829.6,5.00,0.00,22.0,20.6,00.0,30.9,23.7,05.1,0000.0,0001.01,0000.71,0000.63
2023-01-26 08:28:00,,0829.6,4.99,0.00,22.0,20.4,00.0,30.9,23.5,05.0,0000.0,0000.99,0000.69,0000.63
2023-01-26 08:29:00,,0829.6,5.01,0.00,21.9,20.4,00.0,30.9,23.5,05.1,0000.0,0001.01,0000.70,0000.63
2023-01-26 08:30:00,,0829.7,5.01,0.00,22.0,21.4,00.0,30.9,23.7,05.0,0000.0,0001.04,0000.71,0000.62
2023-01-26 08:31:00,,0829.8,5.00,0.00,22.1,22.2,00.0,30.9,24.0,05.1,0000.0,0001.01,0000.70,0000.62
2023-01-26 08:32:00,,0830.0,5.00,0.00,22.2,22.5,00.0,30.9,24.1,05.0,0000.0,0001.02,0000.71,0000.61
2023-01-26 08:33:00,,0829.6,4.98,0.00,22.2,21.9,00.0,30.9,24.0,05.0,0000.0,0001.05,0000.72,0000.61
2023-01-26 08:34:00,,0829.6,5.00,0.00,22.2,21.5,00.0,30.9,23.9,05.0,0000.0,0001.02,0000.71,0000.61
2023-01-26 08:35:00,,0829.6,5.01,0.00,22.1,21.1,00.0,30.9,23.8,05.0,0000.0,0001.04,0000.73,0000.61
2023-01-26 08:36:00,,0829.6,5.01,0.00,22.1,20.8,00.0,30.9,23.7,05.0,0000.0,0001.05,0000.72,0000.61
2023-01-26 08:37:00,,0829.6,4.97,0.00,22.0,20.6,00.0,30.9,23.6,05.0,0000.0,0001.05,0000.71,0000.59
2023-01-26 08:38:00,,0829.6,4.96,0.00,22.0,20.4,00.0,30.9,23.6,05.0,0000.0,0001.04,0000.71,0000.59
2023-01-26 08:39:00,,0829.7,4.98,0.00,21.9,20.2,00.0,30.9,23.5,05.1,0000.0,0001.02,0000.70,0000.58
2023-01-26 08:40:00,,0829.9,4.99,0.00,21.9,20.6,00.0,30.8,23.5,05.1,0000.0,0000.99,0000.69,0000.58
2023-01-26 08:41:00,,0829.6,5.02,0.00,22.0,21.6,00.0,30.8,23.8,05.1,0000.0,0001.14,0000.67,0000.57
2023-01-26 08:42:00,,0829.7,4.99,0.00,22.1,22.5,00.0,30.8,24.0,05.1,0000.0,0002.30,0000.67,0000.57
2023-01-26 08:43:00,,0829.9,5.00,0.00,22.2,22.9,00.0,30.9,24.2,05.1,0000.0,0002.25,0000.64,0000.56
2023-01-26 08:44:00,,0830.1,4.99,0.00,22.2,22.3,00.0,30.9,24.1,05.0,0000.0,0002.20,0000.62,0000.56
2023-01-26 08:45:00,,0829.8,5.01,0.00,22.2,21.7,00.0,30.9,24.0,04.9,0000.0,0002.21,0000.63,0000.58
2023-01-26 08:46:00,,0829.6,5.01,0.00,22.2,21.3,00.0,30.9,23.9,04.9,0000.0,0002.19,0000.62,0000.57
2023-01-26 08:47:00,,0829.7,4.99,0.00,22.1,20.9,00.0,30.9,23.8,04.9,0000.0,0002.24,0000.63,0000.57
2023-01-26 08:48:00,,0829.6,5.00,0.00,22.1,20.7,00.0,30.9,23.7,04.9,0000.0,0002.28,0000.64,0000.56
2023-01-26 08:49:00,,0829.7,5.00,0.00,22.0,20.5,00.0,30.9,23.7,05.0,0000.0,0002.35,0000.67,0000.57
2023-01-26 08:50:00,,0829.6,4.99,0.00,22.0,20.3,00.0,30.9,23.6,05.0,0000.0,0002.39,0000.70,0000.59
2023-01-26 08:51:00,,0829.7,5.01,0.00,21.9,20.3,00.0,30.9,23.5,05.0,0000.0,0002.41,0000.71,0000.59
2023-01-26 08:52:00,,0829.7,5.01,0.00,22.0,20.9,00.0,30.8,23.6,05.0,0000.0,0002.27,0000.73,0000.60
2023-01-26 08:53:00,,0829.8,5.02,0.00,22.0,21.9,00.0,30.8,23.9,05.0,0000.0,0001.09,0000.73,0000.61
2023-01-26 08:54:00,,0829.8,5.00,0.00,22.2,22.7,00.0,30.8,24.1,05.0,0000.0,0001.08,0000.73,0000.62
2023-01-26 08:55:00,,0829.8,4.99,0.00,22.3,22.8,00.0,30.9,24.2,05.0,0000.0,0001.09,0000.74,0000.62
2023-01-26 08:56:00,,0829.7,4.98,0.00,22.2,22.1,00.0,30.9,24.1,05.0,0000.0,0001.12,0000.75,0000.63
2023-01-26 08:57:00,,0829.7,5.02,0.00,22.2,21.5,00.0,30.9,23.9,05.0,0000.0,0001.18,0000.79,0000.65
2023-01-26 08:58:00,,0829.8,5.00,0.00,22.2,21.0,00.0,30.9,23.8,05.0,0000.0,0001.16,0000.81,0000.68
2023-01-26 08:59:00,,0829.7,4.99,0.00,22.1,20.7,00.0,30.9,23.7,05.0,0000.0,0001.15,0000.82,0000.71
